| time (UTC) | temp F | wind direction | speed MPH | gust MPH | rain 1hr in | rain 24hr in | rain mn in | humidity % | barometer mb |
| 20260503032304 | 53 | 295 | 0.0 | 1.0 | 0.00 | 0.19 | 0.00 | 96 | 1009.9 |
| 20260503031803 | 54 | 295 | 0.0 | 1.0 | 0.00 | 0.19 | 0.00 | 95 | 1009.8 |
| 20260503031303 | 54 | 295 | 1.0 | 2.0 | 0.00 | 0.19 | 0.00 | 95 | 1010.0 |
| 20260503030802 | 54 | 270 | 1.0 | 2.0 | 0.00 | 0.19 | 0.00 | 94 | 1010.1 |
| 20260503030252 | 54 | 225 | 0.0 | 0.0 | 0.00 | 0.19 | 0.00 | 94 | 1010.0 |
| 20260503025751 | 54 | 225 | 0.0 | 1.0 | 0.00 | 0.19 | 0.00 | 94 | 1009.9 |
| 20260503025306 | 54 | 225 | 0.0 | 0.0 | 0.00 | 0.19 | 0.00 | 94 | 1010.0 |
| 20260503024806 | 53 | 225 | 0.0 | 1.0 | 0.00 | 0.19 | 0.00 | 95 | 1010.0 |
| 20260503024305 | 53 | 225 | 0.0 | 1.0 | 0.00 | 0.19 | 0.00 | 95 | 1009.7 |
| 20260503023805 | 53 | 225 | 1.0 | 2.0 | 0.00 | 0.19 | 0.00 | 95 | 1010.0 |
| 20260503023305 | 53 | 180 | 0.0 | 2.0 | 0.00 | 0.19 | 0.00 | 95 | 1010.0 |
| 20260503022804 | 53 | 180 | 0.0 | 1.0 | 0.00 | 0.19 | 0.00 | 95 | 1010.1 |
| 20260503022305 | 53 | 180 | 0.0 | 0.0 | 0.00 | 0.19 | 0.00 | 95 | 1009.9 |
| 20260503021803 | 53 | 180 | 0.0 | 0.0 | 0.00 | 0.19 | 0.00 | 95 | 1010.1 |
| 20260503021303 | 53 | 180 | 0.0 | 0.0 | 0.00 | 0.19 | 0.00 | 95 | 1009.9 |
| 20260503020802 | 53 | 180 | 0.0 | 0.0 | 0.00 | 0.19 | 0.00 | 95 | 1010.0 |
| 20260503020302 | 53 | 180 | 0.0 | 0.0 | 0.00 | 0.19 | 0.00 | 95 | 1010.0 |
| 20260503015802 | 53 | 180 | 0.0 | 1.0 | 0.00 | 0.19 | 0.00 | 95 | 1010.1 |
| 20260503015301 | 53 | 180 | 0.0 | 0.0 | 0.00 | 0.19 | 0.00 | 95 | 1010.1 |
| 20260503014801 | 54 | 180 | 0.0 | 0.0 | 0.00 | 0.19 | 0.00 | 94 | 1010.3 |
| 20260503014301 | 54 | 360 | 0.0 | 0.0 | 0.00 | 0.19 | 0.00 | 94 | 1010.1 |
| 20260503013801 | 54 | 341 | 0.0 | 0.0 | 0.00 | 0.19 | 0.00 | 94 | 1010.3 |
| 20260503013315 | 54 | 326 | 0.0 | 1.0 | 0.00 | 0.19 | 0.00 | 94 | 1010.2 |
| 20260503012805 | 55 | 317 | 0.0 | 1.0 | 0.00 | 0.19 | 0.00 | 94 | 1010.2 |
| 20260503012305 | 55 | 308 | 0.0 | 1.0 | 0.00 | 0.19 | 0.00 | 94 | 1010.4 |
| 20260503011804 | 55 | 301 | 2.0 | 4.0 | 0.00 | 0.19 | 0.00 | 95 | 1010.5 |
| 20260503011303 | 55 | 245 | 1.0 | 2.0 | 0.00 | 0.19 | 0.00 | 95 | 1010.3 |
| 20260503010803 | 55 | 235 | 1.0 | 2.0 | 0.00 | 0.19 | 0.00 | 95 | 1010.5 |
| 20260503010303 | 55 | 240 | 1.0 | 2.0 | 0.00 | 0.19 | 0.00 | 95 | 1010.7 |
| 20260503005802 | 55 | 225 | 1.0 | 2.0 | 0.00 | 0.19 | 0.00 | 95 | 1010.7 |
| 20260503005304 | 56 | 235 | 1.0 | 2.0 | 0.00 | 0.19 | 0.00 | 95 | 1010.8 |
| 20260503004801 | 56 | 247 | 1.0 | 2.0 | 0.00 | 0.19 | 0.00 | 95 | 1010.9 |
| 20260503004301 | 56 | 275 | 0.0 | 1.0 | 0.00 | 0.19 | 0.00 | 95 | 1010.9 |
| 20260503003800 | 56 | 275 | 0.0 | 2.0 | 0.00 | 0.19 | 0.00 | 95 | 1010.9 |
| 20260503003259 | 56 | 275 | 0.0 | 2.0 | 0.00 | 0.19 | 0.00 | 95 | 1010.9 |
| 20260503002758 | 56 | 260 | 1.0 | 2.0 | 0.00 | 0.19 | 0.00 | 96 | 1011.0 |
| 20260503002258 | 56 | 232 | 0.0 | 2.0 | 0.00 | 0.19 | 0.00 | 96 | 1011.0 |
| 20260503001812 | 56 | 241 | 1.0 | 2.0 | 0.00 | 0.19 | 0.00 | 96 | 1011.0 |
| 20260503001302 | 56 | 262 | 0.0 | 1.0 | 0.00 | 0.19 | 0.00 | 96 | 1011.0 |
| 20260503000801 | 56 | 262 | 0.0 | 1.0 | 0.00 | 0.19 | 0.00 | 96 | 1011.0 |
| 20260503000301 | 56 | 262 | 1.0 | 2.0 | 0.00 | 0.19 | 0.00 | 96 | 1011.1 |
| 20260502235800 | 56 | 275 | 2.0 | 3.0 | 0.00 | 0.19 | 0.00 | 96 | 1011.0 |
| 20260502235300 | 56 | 280 | 2.0 | 2.0 | 0.00 | 0.19 | 0.00 | 96 | 1011.2 |
| 20260502234800 | 56 | 288 | 0.0 | 1.0 | 0.00 | 0.19 | 0.00 | 96 | 1011.4 |
| 20260502234259 | 56 | 284 | 0.0 | 2.0 | 0.00 | 0.19 | 0.00 | 96 | 1011.2 |
| 20260502233759 | 56 | 276 | 1.0 | 2.0 | 0.00 | 0.19 | 0.00 | 96 | 1011.2 |
| 20260502233258 | 56 | 278 | 2.0 | 3.0 | 0.00 | 0.19 | 0.00 | 96 | 1011.0 |
| 20260502232813 | 56 | 255 | 1.0 | 2.0 | 0.00 | 0.19 | 0.00 | 96 | 1011.0 |
| 20260502232304 | 56 | 252 | 2.0 | 3.0 | 0.00 | 0.19 | 0.00 | 96 | 1011.1 |
| 20260502231802 | 56 | 235 | 2.0 | 4.0 | 0.00 | 0.19 | 0.00 | 96 | 1011.0 |
| 20260502231252 | 56 | 197 | 2.0 | 3.0 | 0.00 | 0.19 | 0.00 | 96 | 1011.3 |
| 20260502230806 | 56 | 250 | 0.0 | 2.0 | 0.00 | 0.19 | 0.00 | 96 | 1011.3 |
| 20260502230256 | 56 | 241 | 0.0 | 2.0 | 0.00 | 0.19 | 0.00 | 96 | 1011.2 |
| 20260502225756 | 56 | 241 | 1.0 | 2.0 | 0.00 | 0.19 | 0.00 | 96 | 1011.3 |
| 20260502225255 | 56 | 230 | 1.0 | 2.0 | 0.00 | 0.19 | 0.00 | 96 | 1011.2 |
| 20260502224810 | 56 | 233 | 0.0 | 2.0 | 0.00 | 0.19 | 0.00 | 96 | 1011.1 |
| 20260502224259 | 56 | 233 | 0.0 | 1.0 | 0.00 | 0.19 | 0.00 | 96 | 1011.2 |
| 20260502223759 | 56 | 233 | 2.0 | 2.0 | 0.00 | 0.19 | 0.00 | 96 | 1011.3 |
| 20260502223313 | 56 | 250 | 0.0 | 2.0 | 0.00 | 0.19 | 0.00 | 96 | 1011.4 |
| 20260502222803 | 57 | 250 | 1.0 | 2.0 | 0.00 | 0.19 | 0.00 | 96 | 1011.2 |
| 20260502222305 | 57 | 206 | 1.0 | 2.0 | 0.00 | 0.19 | 0.00 | 96 | 1011.3 |
| 20260502221802 | 57 | 159 | 0.0 | 1.0 | 0.00 | 0.19 | 0.00 | 96 | 1011.3 |
| 20260502221302 | 57 | 199 | 0.0 | 0.0 | 0.00 | 0.19 | 0.00 | 96 | 1011.4 |
| 20260502220802 | 57 | 199 | 0.0 | 2.0 | 0.00 | 0.19 | 0.00 | 96 | 1011.4 |
| 20260502220301 | 57 | 199 | 0.0 | 1.0 | 0.00 | 0.19 | 0.00 | 96 | 1011.4 |
| 20260502215801 | 57 | 199 | 1.0 | 2.0 | 0.00 | 0.19 | 0.00 | 96 | 1011.3 |
| 20260502215300 | 57 | 225 | 1.0 | 2.0 | 0.00 | 0.19 | 0.00 | 96 | 1011.4 |
| 20260502214759 | 57 | 225 | 2.0 | 4.0 | 0.00 | 0.19 | 0.00 | 96 | 1011.4 |
| 20260502214259 | 57 | 180 | 0.0 | 2.0 | 0.00 | 0.19 | 0.00 | 96 | 1011.3 |
| 20260502213758 | 57 | 180 | 0.0 | 1.0 | 0.00 | 0.19 | 0.00 | 96 | 1011.4 |
| 20260502213258 | 57 | 180 | 0.0 | 1.0 | 0.00 | 0.19 | 0.00 | 96 | 1011.4 |
| 20260502212758 | 57 | 180 | 0.0 | 1.0 | 0.00 | 0.19 | 0.00 | 96 | 1011.3 |
| 20260502212258 | 57 | 180 | 0.0 | 2.0 | 0.00 | 0.19 | 0.00 | 96 | 1011.5 |
| 20260502211812 | 57 | 135 | 0.0 | 1.0 | 0.00 | 0.19 | 0.00 | 96 | 1011.5 |
| 20260502211317 | 57 | 135 | 0.0 | 1.0 | 0.00 | 0.19 | 0.00 | 96 | 1011.6 |
| 20260502210806 | 57 | 135 | 0.0 | 0.0 | 0.00 | 0.19 | 0.00 | 95 | 1011.7 |
| 20260502210306 | 57 | 135 | 0.0 | 0.0 | 0.00 | 0.19 | 0.00 | 95 | 1011.6 |
| 20260502205805 | 57 | 135 | 0.0 | 0.0 | 0.00 | 0.19 | 0.00 | 95 | 1011.6 |
| 20260502205305 | 57 | 178 | 1.0 | 2.0 | 0.00 | 0.19 | 0.00 | 95 | 1011.6 |
| 20260502204805 | 57 | 202 | 0.0 | 1.0 | 0.00 | 0.19 | 0.00 | 95 | 1011.7 |
| 20260502204304 | 57 | 202 | 1.0 | 2.0 | 0.00 | 0.19 | 0.00 | 95 | 1011.8 |
| 20260502203804 | 58 | 225 | 0.0 | 1.0 | 0.00 | 0.19 | 0.00 | 95 | 1011.7 |
| 20260502203304 | 58 | 225 | 0.0 | 1.0 | 0.00 | 0.19 | 0.00 | 95 | 1011.8 |
| 20260502202803 | 58 | 225 | 3.0 | 4.0 | 0.00 | 0.19 | 0.00 | 94 | 1011.9 |
| 20260502202304 | 58 | 180 | 0.0 | 1.0 | 0.00 | 0.19 | 0.00 | 94 | 1012.0 |
| 20260502201817 | 58 | 180 | 0.0 | 1.0 | 0.00 | 0.19 | 0.00 | 94 | 1011.8 |
| 20260502201307 | 58 | 180 | 0.0 | 0.0 | 0.00 | 0.19 | 0.00 | 94 | 1012.0 |
| 20260502200807 | 58 | 180 | 0.0 | 1.0 | 0.00 | 0.19 | 0.00 | 94 | 1011.8 |
| 20260502200306 | 58 | 180 | 0.0 | 1.0 | 0.00 | 0.19 | 0.00 | 94 | 1011.8 |
| 20260502195811 | 58 | 180 | 0.0 | 0.0 | 0.00 | 0.19 | 0.00 | 94 | 1011.8 |
| 20260502195300 | 58 | 180 | 0.0 | 1.0 | 0.02 | 0.19 | 0.00 | 94 | 1011.8 |
| 20260502194815 | 58 | 225 | 0.0 | 1.0 | 0.02 | 0.19 | 0.00 | 94 | 1011.9 |
| 20260502194304 | 58 | 186 | 0.0 | 0.0 | 0.02 | 0.19 | 0.00 | 94 | 1011.8 |
| 20260502193804 | 58 | 184 | 0.0 | 1.0 | 0.02 | 0.19 | 0.00 | 94 | 1011.9 |
| 20260502193304 | 58 | 172 | 0.0 | 1.0 | 0.02 | 0.19 | 0.00 | 93 | 1012.0 |
| 20260502192803 | 58 | 174 | 0.0 | 1.0 | 0.02 | 0.19 | 0.00 | 93 | 1012.1 |
| 20260502192305 | 58 | 174 | 1.0 | 2.0 | 0.02 | 0.19 | 0.00 | 93 | 1011.9 |
| 20260502191803 | 58 | 143 | 1.0 | 2.0 | 0.02 | 0.19 | 0.00 | 93 | 1011.7 |
| 20260502191302 | 58 | 152 | 1.0 | 2.0 | 0.02 | 0.19 | 0.00 | 92 | 1011.7 |
| 20260502190802 | 58 | 121 | 1.0 | 2.0 | 0.02 | 0.19 | 0.00 | 92 | 1011.7 |
| 20260502190316 | 58 | 180 | 1.0 | 2.0 | 0.02 | 0.19 | 0.00 | 92 | 1011.7 |
| 20260502185806 | 58 | 180 | 0.0 | 1.0 | 0.02 | 0.19 | 0.00 | 92 | 1011.8 |
| 20260502185306 | 58 | 180 | 0.0 | 1.0 | 0.00 | 0.17 | 0.00 | 92 | 1012.1 |
| 20260502184756 | 59 | 180 | 0.0 | 2.0 | 0.00 | 0.17 | 0.00 | 92 | 1011.8 |
| 20260502184255 | 59 | 180 | 1.0 | 2.0 | 0.00 | 0.17 | 0.00 | 92 | 1011.9 |
| 20260502183755 | 59 | 180 | 0.0 | 2.0 | 0.00 | 0.17 | 0.00 | 91 | 1012.1 |
| 20260502183254 | 59 | 180 | 1.0 | 2.0 | 0.00 | 0.17 | 0.00 | 91 | 1012.0 |
| 20260502182254 | 59 | 180 | 1.0 | 2.0 | 0.00 | 0.17 | 0.00 | 91 | 1011.8 |
| 20260502181753 | 59 | 180 | 0.0 | 1.0 | 0.00 | 0.17 | 0.00 | 91 | 1011.8 |
| 20260502181253 | 59 | 90 | 0.0 | 2.0 | 0.00 | 0.17 | 0.00 | 92 | 1012.0 |
| 20260502180808 | 59 | 129 | 0.0 | 2.0 | 0.00 | 0.17 | 0.00 | 92 | 1012.1 |
| 20260502180307 | 59 | 129 | 0.0 | 2.0 | 0.00 | 0.17 | 0.00 | 92 | 1012.0 |
| 20260502170311 | 59 | 90 | 0.0 | 1.0 | 0.05 | 0.17 | 0.00 | 92 | 1012.6 |
| 20260502164300 | 58 | 225 | 0.0 | 0.0 | 0.17 | 0.17 | 0.00 | 91 | 1013.2 |
| 20260502163759 | 58 | 225 | 0.0 | 0.0 | 0.17 | 0.17 | 0.00 | 91 | 1013.1 |
| 20260502163259 | 59 | 225 | 0.0 | 2.0 | 0.17 | 0.17 | 0.00 | 90 | 1013.2 |
| 20260502162759 | 59 | 225 | 0.0 | 1.0 | 0.15 | 0.15 | 0.00 | 90 | 1013.1 |
| 20260502162258 | 59 | 212 | 1.0 | 2.0 | 0.15 | 0.15 | 0.00 | 89 | 1013.4 |
| 20260502161758 | 59 | 183 | 0.0 | 1.0 | 0.15 | 0.15 | 0.00 | 88 | 1013.2 |
| 20260502161313 | 59 | 181 | 0.0 | 1.0 | 0.14 | 0.14 | 0.00 | 88 | 1013.4 |
| 20260502160802 | 59 | 172 | 0.0 | 1.0 | 0.13 | 0.13 | 0.00 | 86 | 1013.6 |
| 20260502160301 | 59 | 172 | 1.0 | 2.0 | 0.12 | 0.12 | 0.00 | 84 | 1013.7 |
| 20260502152253 | 70 | 166 | 2.0 | 3.0 | 0.00 | 0.00 | 0.00 | 52 | 1013.4 |
| 20260502151753 | 70 | 157 | 2.0 | 2.0 | 0.00 | 0.00 | 0.00 | 49 | 1013.3 |
| 20260502151308 | 70 | 195 | 0.0 | 3.0 | 0.00 | 0.00 | 0.00 | 49 | 1013.5 |
| 20260502150807 | 71 | 200 | 0.0 | 2.0 | 0.00 | 0.00 | 0.00 | 48 | 1013.7 |
| 20260502150307 | 71 | 198 | 1.0 | 2.0 | 0.00 | 0.00 | 0.00 | 47 | 1013.3 |
| 20260502130258 | 74 | 181 | 1.0 | 2.0 | 0.00 | 0.00 | 0.00 | 42 | 1015.5 |
| 20260502123755 | 74 | 190 | 1.0 | 2.0 | 0.00 | 0.00 | 0.00 | 42 | 1015.6 |
| 20260502123254 | 72 | 190 | 2.0 | 3.0 | 0.00 | 0.00 | 0.00 | 40 | 1015.8 |
| 20260502122754 | 73 | 220 | 2.0 | 2.0 | 0.00 | 0.00 | 0.00 | 39 | 1015.7 |
| 20260502122253 | 74 | 209 | 2.0 | 3.0 | 0.00 | 0.00 | 0.00 | 39 | 1015.9 |
| 20260502121753 | 72 | 198 | 2.0 | 2.0 | 0.00 | 0.00 | 0.00 | 42 | 1015.9 |
| 20260502121308 | 72 | 206 | 1.0 | 2.0 | 0.00 | 0.00 | 0.00 | 41 | 1016.0 |
| 20260502120807 | 71 | 194 | 1.0 | 2.0 | 0.00 | 0.00 | 0.00 | 44 | 1016.0 |
| 20260502120307 | 72 | 205 | 2.0 | 3.0 | 0.00 | 0.00 | 0.00 | 40 | 1016.0 |
| 20260502115807 | 72 | 191 | 3.0 | 5.0 | 0.00 | 0.00 | 0.00 | 39 | 1016.1 |
| 20260502115306 | 72 | 224 | 1.0 | 3.0 | 0.00 | 0.00 | 0.00 | 39 | 1016.2 |
| 20260502114756 | 72 | 231 | 2.0 | 4.0 | 0.00 | 0.00 | 0.00 | 43 | 1016.3 |
| 20260502114256 | 71 | 264 | 1.0 | 2.0 | 0.00 | 0.00 | 0.00 | 47 | 1016.5 |
| 20260502113755 | 70 | 257 | 2.0 | 2.0 | 0.00 | 0.00 | 0.00 | 48 | 1016.7 |
| 20260502113255 | 70 | 269 | 2.0 | 4.0 | 0.00 | 0.00 | 0.00 | 45 | 1016.7 |
| 20260502112755 | 71 | 268 | 2.0 | 3.0 | 0.00 | 0.00 | 0.00 | 46 | 1016.5 |
| 20260502112254 | 71 | 273 | 2.0 | 3.0 | 0.00 | 0.00 | 0.00 | 46 | 1016.4 |
| 20260502111754 | 71 | 277 | 1.0 | 2.0 | 0.00 | 0.00 | 0.00 | 49 | 1016.7 |
| 20260502111254 | 70 | 264 | 2.0 | 4.0 | 0.00 | 0.00 | 0.00 | 47 | 1016.7 |
| 20260502110808 | 70 | 253 | 2.0 | 3.0 | 0.00 | 0.00 | 0.00 | 47 | 1016.9 |
| 20260502110258 | 70 | 193 | 1.0 | 2.0 | 0.00 | 0.00 | 0.00 | 49 | 1016.9 |
| 20260502105758 | 70 | 195 | 2.0 | 4.0 | 0.00 | 0.00 | 0.00 | 48 | 1017.1 |
| 20260502105257 | 69 | 136 | 1.0 | 2.0 | 0.00 | 0.00 | 0.00 | 49 | 1016.9 |
| 20260502104757 | 69 | 159 | 2.0 | 3.0 | 0.00 | 0.00 | 0.00 | 50 | 1017.1 |
| 20260502104257 | 69 | 182 | 1.0 | 2.0 | 0.00 | 0.00 | 0.00 | 50 | 1017.3 |
| 20260502103757 | 69 | 199 | 2.0 | 3.0 | 0.00 | 0.00 | 0.00 | 50 | 1017.2 |
| 20260502103256 | 69 | 216 | 2.0 | 3.0 | 0.00 | 0.00 | 0.00 | 51 | 1017.4 |
| 20260502102756 | 68 | 184 | 2.0 | 4.0 | 0.00 | 0.00 | 0.00 | 52 | 1017.4 |
| 20260502102255 | 67 | 203 | 2.0 | 4.0 | 0.00 | 0.00 | 0.00 | 52 | 1017.3 |
| 20260502101755 | 67 | 167 | 2.0 | 4.0 | 0.00 | 0.00 | 0.00 | 52 | 1017.5 |
| 20260502101254 | 67 | 181 | 2.0 | 4.0 | 0.00 | 0.00 | 0.00 | 53 | 1017.5 |
| 20260502100755 | 67 | 186 | 1.0 | 2.0 | 0.00 | 0.00 | 0.00 | 53 | 1017.5 |
| 20260502100254 | 67 | 181 | 3.0 | 4.0 | 0.00 | 0.00 | 0.00 | 53 | 1017.5 |
| 20260502091259 | 65 | 188 | 2.0 | 2.0 | 0.00 | 0.00 | 0.00 | 59 | 1017.9 |
| 20260502090814 | 65 | 214 | 2.0 | 2.0 | 0.00 | 0.00 | 0.00 | 59 | 1018.1 |
| 20260502090303 | 65 | 224 | 3.0 | 4.0 | 0.00 | 0.00 | 0.00 | 61 | 1018.3 |
| 20260502071305 | 52 | 252 | 1.0 | 2.0 | 0.00 | 0.00 | 0.00 | 97 | 1019.1 |
| 20260502070805 | 51 | 231 | 0.0 | 1.0 | 0.00 | 0.00 | 0.00 | 97 | 1019.0 |
| 20260502070304 | 52 | 231 | 1.0 | 2.0 | 0.00 | 0.00 | 0.00 | 97 | 1018.8 |
| 20260502065804 | 51 | 202 | 1.0 | 2.0 | 0.00 | 0.00 | 0.00 | 98 | 1018.8 |
| 20260502065306 | 51 | 225 | 2.0 | 2.0 | 0.00 | 0.00 | 0.00 | 98 | 1018.9 |
| 20260502064753 | 51 | 225 | 0.0 | 0.0 | 0.00 | 0.00 | 0.00 | 98 | 1019.0 |
| 20260502064307 | 51 | 225 | 1.0 | 2.0 | 0.00 | 0.00 | 0.00 | 98 | 1019.0 |
| 20260502063806 | 51 | 225 | 0.0 | 2.0 | 0.00 | 0.00 | 0.00 | 98 | 1018.9 |
| 20260502063306 | 51 | 225 | 0.0 | 1.0 | 0.00 | 0.00 | 0.00 | 98 | 1018.9 |
| 20260502062806 | 51 | 225 | 0.0 | 2.0 | 0.00 | 0.00 | 0.00 | 98 | 1018.8 |
| 20260502062306 | 50 | 225 | 1.0 | 2.0 | 0.00 | 0.00 | 0.00 | 97 | 1018.8 |
| 20260502061805 | 50 | 240 | 1.0 | 2.0 | 0.00 | 0.00 | 0.00 | 97 | 1018.9 |
| 20260502061304 | 50 | 263 | 0.0 | 1.0 | 0.00 | 0.00 | 0.00 | 97 | 1018.9 |
| 20260502060804 | 50 | 244 | 0.0 | 1.0 | 0.00 | 0.00 | 0.00 | 98 | 1018.8 |
| 20260502060304 | 50 | 226 | 0.0 | 1.0 | 0.00 | 0.00 | 0.00 | 98 | 1018.9 |
| 20260502055803 | 49 | 223 | 0.0 | 2.0 | 0.00 | 0.00 | 0.00 | 98 | 1019.1 |
| 20260502055305 | 49 | 222 | 1.0 | 3.0 | 0.00 | 0.00 | 0.00 | 98 | 1018.9 |
| 20260502054802 | 49 | 205 | 1.0 | 2.0 | 0.00 | 0.00 | 0.00 | 98 | 1018.9 |
| 20260502053802 | 49 | 176 | 2.0 | 3.0 | 0.00 | 0.00 | 0.00 | 97 | 1018.7 |
| 20260502053302 | 49 | 179 | 1.0 | 2.0 | 0.00 | 0.00 | 0.00 | 97 | 1018.9 |
| 20260502052801 | 49 | 217 | 1.0 | 2.0 | 0.00 | 0.00 | 0.00 | 97 | 1019.0 |
| 20260502052301 | 49 | 225 | 0.0 | 2.0 | 0.00 | 0.00 | 0.00 | 97 | 1018.9 |
| 20260502051816 | 49 | 225 | 1.0 | 2.0 | 0.00 | 0.00 | 0.00 | 97 | 1018.9 |
| 20260502051305 | 49 | 230 | 0.0 | 0.0 | 0.00 | 0.00 | 0.00 | 97 | 1018.9 |
| 20260502050805 | 49 | 230 | 1.0 | 2.0 | 0.00 | 0.00 | 0.00 | 97 | 1018.9 |
| 20260502050255 | 49 | 248 | 2.0 | 2.0 | 0.00 | 0.00 | 0.00 | 97 | 1018.9 |
| 20260502045754 | 49 | 292 | 0.0 | 2.0 | 0.00 | 0.00 | 0.00 | 96 | 1019.0 |
| 20260502045254 | 49 | 298 | 0.0 | 2.0 | 0.00 | 0.00 | 0.00 | 96 | 1018.9 |
| 20260502044753 | 49 | 298 | 1.0 | 2.0 | 0.00 | 0.00 | 0.00 | 96 | 1018.8 |
| 20260502044308 | 49 | 308 | 0.0 | 2.0 | 0.00 | 0.00 | 0.00 | 96 | 1018.7 |
| 20260502043807 | 49 | 305 | 2.0 | 3.0 | 0.00 | 0.00 | 0.00 | 96 | 1018.8 |
| 20260502043307 | 49 | 298 | 1.0 | 2.0 | 0.00 | 0.00 | 0.00 | 96 | 1018.7 |
| 20260502042757 | 49 | 299 | 2.0 | 3.0 | 0.00 | 0.00 | 0.00 | 96 | 1018.9 |
| 20260502042256 | 49 | 271 | 0.0 | 1.0 | 0.00 | 0.00 | 0.00 | 96 | 1018.9 |
| 20260502041756 | 49 | 268 | 0.0 | 2.0 | 0.00 | 0.00 | 0.00 | 96 | 1018.7 |
| 20260502041255 | 49 | 268 | 1.0 | 4.0 | 0.00 | 0.00 | 0.00 | 96 | 1018.8 |
| 20260502040810 | 49 | 267 | 1.0 | 2.0 | 0.00 | 0.00 | 0.00 | 96 | 1018.9 |
| 20260502040300 | 50 | 258 | 2.0 | 3.0 | 0.00 | 0.00 | 0.00 | 96 | 1018.9 |
| 20260502035759 | 49 | 242 | 2.0 | 2.0 | 0.00 | 0.00 | 0.00 | 96 | 1018.8 |
| 20260502035313 | 49 | 225 | 1.0 | 3.0 | 0.00 | 0.00 | 0.00 | 96 | 1019.0 |
| 20260502034803 | 49 | 180 | 0.0 | 2.0 | 0.00 | 0.00 | 0.00 | 95 | 1018.9 |
| 20260502034302 | 49 | 180 | 0.0 | 1.0 | 0.00 | 0.00 | 0.00 | 95 | 1018.9 |
| 20260502033802 | 49 | 270 | 0.0 | 2.0 | 0.00 | 0.00 | 0.00 | 95 | 1019.0 |
| 20260502033301 | 49 | 270 | 0.0 | 1.0 | 0.00 | 0.00 | 0.00 | 95 | 1019.0 |
| 20260502032801 | 49 | 270 | 0.0 | 0.0 | 0.00 | 0.00 | 0.00 | 95 | 1019.2 |